Home   Weather   Kerman   Past weeks

Flag for Iran Past Weather in Kerman, Iran — Yesterday and Last 2 Weeks

Now
95 °F

Passing clouds.


Feels Like: 90 °F
Forecast: 53 / 91 °F
Wind: 7 mph from East

Location: Kerman Airport

Current Time: Sep 25, 2016 at 3:54:43 PM

Latest Report: Sep 25, 2016 at 3:30 PM


Visibility: N/A

Pressure: 29.98 "Hg (24.66 "Hg at 1762m altitude)

Humidity: 4%

Dew Point: 9 °F

Location of KermanLocation

Past Weather in Kerman — Graph

°F

Kerman Temperature Yesterday

Maximum temperature yesterday: 95 °F (at 2:30 PM)
Minimum temperature yesterday: 54 °F (at 4:30 AM)
Average temperature yesterday: 76 °F

High & Low Weather Summary for the Past Weeks

 TemperatureHumidityPressure
High95 °F (Sep 15, 3:30 PM)34% (Sep 14, 2:30 AM)30.18 "Hg (Sep 14, 2:30 AM)
Low54 °F (Sep 24, 4:30 AM)1% (Sep 24, 2:30 PM)29.95 "Hg (Sep 20, 5:30 PM)
Average78 °F13%30.08 "Hg
* Reported Sep 10 3:30 PM — Sep 25 2:30 PM, Kerman, Weather by CustomWeather, © 2016

Note: Actual official high and low records may vary slightly from our data, if they occured in-between our weather recording intervals... More about our weather records

Advertising

Kerman Weather History for the Previous 24 Hours

Scroll right to see more
 ConditionsComfort  
Time TempWeatherWind HumidityBarometerVisibility
2:30 PM
Sun, Sep 25
93 °FSunny.7 mph4%29.98 "Hg10 mi
1:30 PM91 °FSunny.7 mph5%30.01 "Hg10 mi
12:30 PM91 °FSunny.5 mph5%30.04 "Hg10 mi
11:30 AM91 °FSunny.5 mph6%30.04 "Hg10 mi
10:30 AM88 °FSunny.5 mph8%30.07 "Hg10 mi
9:20 AM86 °FSunny.7 mph11%30.09 "Hg10 mi
8:20 AM81 °FSunny.5 mph14%30.09 "Hg10 mi
7:21 AM68 °FSunny.No wind17%30.07 "Hg10 mi
6:30 AM59 °FSunny.2 mph18%30.04 "Hg10 mi
5:30 AM54 °FClear.No wind21%30.04 "Hg10 mi
4:30 AM55 °FClear.7 mph19%30.01 "Hg10 mi
3:30 AM57 °FClear.No wind18%30.01 "Hg10 mi
2:30 AM59 °FClear.No wind16%30.01 "Hg10 mi
1:30 AM61 °FClear.No wind15%30.01 "Hg10 mi
12:30 AM63 °FClear.5 mph14%30.01 "Hg10 mi
11:30 PM
Sat, Sep 24
66 °FClear.5 mph13%30.01 "Hg10 mi
10:30 PM72 °FClear.5 mph11%30.01 "Hg10 mi
9:30 PM72 °FClear.5 mph10%30.01 "Hg10 mi
8:30 PM81 °FClear.5 mph8%30.01 "Hg10 mi
7:30 PM82 °FClear.9 mph7%29.98 "Hg10 mi
6:30 PM84 °FClear.12 mph6%29.95 "Hg10 mi
5:30 PM90 °FSunny.7 mph5%29.95 "Hg10 mi
4:30 PM95 °FPassing clouds.7 mph4%29.95 "HgN/A
3:30 PM95 °FPassing clouds.7 mph4%29.95 "HgN/A
Weather by CustomWeather, © 2016

See weather overviewHow to use our weather pages